Regional Weather Roundup
Issued by NWS

Home | Current Version | Previous Version | Graphics & Text | Print | Product List | Glossary On
Versions: 1 2 3 4 5 6 7 8 9 10 11 12 13 14 15 16 17 18 19 20 21 22 23 24 25 26 27
000
ASUS45 KCYS 192310
RWRWY

WYOMING REGIONAL WEATHER ROUNDUP
NATIONAL WEATHER SERVICE CHEYENNE WY
500 PM MDT SAT APR 19 2014

NOTE:  "FAIR" INDICATES FEW OR NO CLOUDS BELOW 12,000 FEET
WITH NO SIGNIFICANT WEATHER AND/OR OBSTRUCTIONS TO VISIBILITY.

WYZ001-200000-
YELLOWSTONE NATIONAL PARK

CITY           SKY/WX    TMP DP  RH WIND       PRES   REMARKS
LK YELLOWSTONE   N/A     47  11  23 MISG      30.08S
W YELLOWSTONE  NOT AVBL

$$
WYZ002>013-054>058-071-098>099-200000-
NORTHERN WYOMING

CITY           SKY/WX    TMP DP  RH WIND       PRES   REMARKS
JACKSON        SUNNY     59  18  20 S14G22    30.02F
CODY           SUNNY     64  16  15 SW13G21   29.92S
GREYBULL       MOSUNNY   67  15  13 VRB3      29.90F
WORLAND        MOSUNNY   67  21  17 N6        29.90F
SHERIDAN         N/A     57  32  38 W13G18      N/A
BUFFALO        MOSUNNY   64  26  23 NE10G20   29.93F
GILLETTE       PTSUNNY   63  26  24 S8        29.94F
HULETT         FAIR      61  25  25 W3        29.99
NEWCASTLE      FAIR      61  21  21 SE6       29.99

$$
WYZ014>020-022>026-101>103-200000-
CENTRAL WYOMING

CITY           SKY/WX    TMP DP  RH WIND       PRES   REMARKS
BIG PINEY      MOSUNNY   59  18  20 SW16G23   30.06S
PINEDALE       PTCLDY    54  19  26 NW12G23   30.07S
DUBOIS         FAIR      54  10  17 W23G30    30.02S
LANDER         PTSUNNY   63  21  20 S6        29.94S
RIVERTON       PTSUNNY   68  12  11 W15       29.94F
CASPER         MOSUNNY   69  20  15 W15G23    29.93S
DOUGLAS        MOSUNNY   62  38  40 SE16G23   29.97F

$$
WYZ021-027>030-104>119-200000-
SOUTHERN WYOMING

CITY           SKY/WX    TMP DP  RH WIND       PRES   REMARKS
EVANSTON       PTSUNNY   60  32  34 W18       30.07S
KEMMERER       MOCLDY    57  30  35 W17G26    30.07S
FORT BRIDGER   MOCLDY    62  30  30 W18       30.08S
ROCK SPRINGS   MOSUNNY   65  27  23 SW21G30   30.03F
DIXON          CLOUDY    58  37  45 W10       30.10S
RAWLINS        PTSUNNY   61  35  37 SW18G28   30.04F
SARATOGA       CLOUDY    55  30  38 W24       30.08S
LARAMIE        CLOUDY    58  29  33 SW13      30.05F
CHEYENNE       MOSUNNY   63  36  36 S14G20    30.03F
TORRINGTON     MOSUNNY   64  36  35 SE14G21   29.97F
PINE BLUFFS    FAIR      63  34  34 SW3       30.03S

$$



USA.gov is the U.S. government's official web portal to all federal, state and local government web resources and services.